Flag for Canada Weather past 2 weeks in Annapolis County, Nova Scotia, Canada

Now
67 °F

Mild.


Feels Like: 67 °F
Forecast: 57 / 67 °F
Wind: 6 mph from North

Location: Kejimkujik 1

Current Time: Aug 23, 2014 at 3:27:29 PM

Latest Report: Aug 23, 2014 at 3:00 PM


Visibility: N/A

Pressure: 30.09 "Hg

Humidity: 64%

Dew point: 55 °F

Location of Annapolis CountyLocation

Historic Weather in Annapolis County — Graph

°F

Annapolis County temperature yesterday

Maximum temperature yesterday: 69 °F (at 3:00 PM)
Minimum temperature yesterday: 56 °F (at 7:00 AM)
Average temperature yesterday: 63 °F

Past Weeks' High & Low Weather Summary

 TemperatureHumidityPressure
High80 °F (Aug 20, 4:00 PM)100% (Aug 11, 3:00 AM)30.19 "Hg (Aug 11, 3:00 AM)
Low49 °F (Aug 11, 3:00 AM)35% (Aug 12, 5:00 PM)29.64 "Hg (Aug 18, 5:00 AM)
Average63 °F81%29.98 "Hg
* Reported Aug 8 2:00 PM — Aug 23 2:00 PM, Annapolis County, Weather by CustomWeather, © 2014

Note: Actual official high and low records may vary slightly from our data, if they occured in-between our weather recording intervals... More about our weather records

Advertising

Annapolis County weather history for previous 24 hours

 ConditionsComfort  
Time TempWeatherWind HumidityBarometerVisibility
2:00 PM
Aug 23
66 °FMild.6 mph67%30.09 "HgN/A
1:00 PM66 °FMild.8 mph66%30.10 "HgN/A
12:00 PM67 °FMild.6 mph62%30.09 "HgN/A
11:00 AM65 °FMild.5 mph76%30.10 "HgN/A
10:00 AM63 °FMild.6 mph82%30.10 "HgN/A
9:00 AM59 °FCool.2 mph91%30.11 "HgN/A
8:00 AM59 °FCool.3 mph91%30.10 "HgN/A
7:00 AM58 °FCool.2 mph93%30.09 "HgN/A
6:00 AM58 °FCool.2 mph92%30.07 "HgN/A
5:00 AM58 °FCool.2 mph92%30.08 "HgN/A
4:00 AM59 °FCool.2 mph91%30.08 "HgN/A
3:00 AM59 °FCool.2 mph91%30.09 "HgN/A
2:00 AM60 °FCool.1 mph90%30.10 "HgN/A
1:00 AM60 °FCool.2 mph88%30.10 "HgN/A
12:00 AM61 °FCool.2 mph87%30.11 "HgN/A
11:00 PM
Aug 22
61 °FCool.5 mph86%30.10 "HgN/A
10:00 PM62 °FCool.3 mph87%30.11 "HgN/A
9:00 PM62 °FCool.2 mph81%30.11 "HgN/A
8:00 PM63 °FMild.2 mph84%30.11 "HgN/A
7:00 PM65 °FMild.2 mph81%30.11 "HgN/A
6:00 PM64 °FMild.3 mph84%30.10 "HgN/A
5:00 PM67 °FMild.3 mph70%30.10 "HgN/A
4:00 PM67 °FMild.5 mph73%30.10 "HgN/A
3:00 PM69 °FMild.7 mph65%30.10 "HgN/A
Weather by CustomWeather, © 2014

See weather overviewHow to use our weather pages